Location: Bastelaar
(51.0950°N, 3.8602°E)
Time: 07:15:41
(UTC+00:00)

BlueWalker 3 - Pass Details

Date: 27 January 2026
Orbit: 450 x 461 km, 53.2° (Epoch: 11 February)

Event Time Altitude Azimuth Distance (km) Brightness Sun altitude
Rises 18:38:19 0° 265° (W) 2,456 7.1 -20.5°
Reaches altitude 10° 18:40:27 10° 268° (W) 1,584 5.7 -20.8°
Enters shadow 18:43:53 64° 338° (NNW) 505 1.9 -21.4°
